Weather History for Ainsworth, NE

Change the Weather History Date:

Sunday, January 19, 2014

  Actual Average Record
Temperature  
Mean Temperature 46 °F -  
Max Temperature 61 °F 33 °F 61 °F (2014)
Min Temperature 31 °F 13 °F -13 °F (2001)
Degree Days  
Heating Degree Days 19    
Moisture  
Dew Point 21 °F    
Average Humidity 48    
Maximum Humidity 69    
Minimum Humidity 15    
Precipitation  
Precipitation 0.00 in - - ()
Sea Level Pressure  
Sea Level Pressure 29.83 in    
Wind  
Wind Speed 14 mph (West)    
Max Wind Speed 29 mph    
Max Gust Speed 39 mph    
Visibility 10 miles    
Events      
Averages and records for this station are not official NWS values.
T = Trace of Precipitation, MM = Missing Value Source: NWS Daily Summary

Daily Weather History Graph

Daily Weather History Graph

Search for Another Location

Airport:

Trip Planner

Search our weather history database for the weather conditions in past years. The results will help you decide how hot, cold, wet, or windy it might be!

Date:

Astronomy

Jan. 19, 2014 Rise Set
Actual Time 8:04 AM CST 5:36 PM CST
Civil Twilight 7:34 AM CST 6:07 PM CST
Nautical Twilight 6:59 AM CST 6:42 PM CST
Astronomical Twilight 6:25 AM CST 7:16 PM CST
Moon 9:22 PM CST (1/19) 9:30 AM CST (1/19)
Length of Visible Light 10h 33m
Length of Day
9h 32m
Waning Gibbous, 89% of the Moon is Illuminated
Jan 19
Waning Gibbous
Jan 23
Last Quarter
Jan 30
New
Feb 6
First Quarter
Feb 14
Full

Hourly Weather History & Observations

Time (CST) Temp. Windchill Dew Point Humidity Pressure Visibility Wind Dir Wind Speed Gust Speed Precip Events Conditions
12:15 AM 31.1 °F 23.1 °F 21.2 °F 67% 29.92 in 10.0 mi WSW 9.2 mph - N/A   Clear
12:35 AM 32.2 °F 22.7 °F 22.1 °F 66% 29.90 in 10.0 mi WSW 12.7 mph - N/A   Clear
12:55 AM 32.0 °F 22.1 °F 22.1 °F 67% 29.89 in 10.0 mi WSW 13.8 mph - N/A   Clear
1:15 AM 32.0 °F 22.5 °F 22.5 °F 68% 29.89 in 10.0 mi WSW 12.7 mph - N/A   Clear
1:35 AM 32.9 °F 24.1 °F 23.4 °F 68% 29.88 in 10.0 mi West 11.5 mph - N/A   Clear
1:55 AM 34.3 °F 25.9 °F 23.9 °F 66% 29.87 in 10.0 mi WSW 11.5 mph - N/A   Clear
2:15 AM 33.3 °F 25.1 °F 23.9 °F 69% 29.86 in 10.0 mi WSW 10.4 mph - N/A   Clear
2:35 AM 33.1 °F 24.4 °F 23.9 °F 69% 29.85 in 10.0 mi WSW 11.5 mph - N/A   Clear
2:55 AM 34.2 °F 25.7 °F 24.4 °F 68% 29.85 in 10.0 mi WSW 11.5 mph - N/A   Clear
3:15 AM 35.1 °F 25.9 °F 23.9 °F 64% 29.85 in 10.0 mi WSW 13.8 mph - N/A   Clear
3:35 AM 34.3 °F 25.0 °F 23.5 °F 65% 29.84 in 10.0 mi WSW 13.8 mph - N/A   Clear
3:55 AM 34.7 °F 24.7 °F 23.5 °F 64% 29.84 in 10.0 mi WSW 16.1 mph - N/A   Clear
4:15 AM 33.6 °F 23.7 °F 23.4 °F 66% 29.83 in 10.0 mi WSW 15.0 mph - N/A   Clear
4:35 AM 32.9 °F 23.2 °F 23.0 °F 67% 29.83 in 10.0 mi WSW 13.8 mph - N/A   Clear
4:55 AM 32.4 °F 21.7 °F 23.0 °F 68% 29.83 in 10.0 mi WSW 16.1 mph - N/A   Clear
5:15 AM 33.4 °F 23.9 °F 23.4 °F 67% 29.82 in 10.0 mi West 13.8 mph - N/A   Clear
5:35 AM 32.9 °F 22.8 °F 23.0 °F 67% 29.81 in 10.0 mi West 15.0 mph - N/A   Clear
5:55 AM 33.8 °F 24.8 °F 23.4 °F 66% 29.80 in 10.0 mi West 12.7 mph - N/A   Clear
6:15 AM 34.5 °F 24.8 °F 23.7 °F 65% 29.80 in 10.0 mi West 15.0 mph - N/A   Clear
6:35 AM 36.0 °F 26.7 °F 23.9 °F 62% 29.80 in 10.0 mi West 15.0 mph - N/A   Clear
6:55 AM 36.5 °F 26.7 °F 23.9 °F 60% 29.80 in 10.0 mi West 17.3 mph - N/A   Clear
7:15 AM 36.5 °F 27.0 °F 23.7 °F 60% 29.80 in 10.0 mi West 16.1 mph - N/A   Clear
7:35 AM 37.2 °F 27.9 °F 23.5 °F 58% 29.81 in 10.0 mi West 16.1 mph - N/A   Clear
7:55 AM 36.0 °F 27.1 °F 23.4 °F 60% 29.81 in 10.0 mi West 13.8 mph - N/A   Clear
8:15 AM 37.2 °F 29.1 °F 23.5 °F 58% 29.80 in 10.0 mi West 12.7 mph - N/A   Clear
8:35 AM 39.0 °F 30.6 °F 23.9 °F 55% 29.80 in 10.0 mi West 15.0 mph 20.7 mph N/A   Clear
8:55 AM 39.9 °F 31.4 °F 23.9 °F 53% 29.80 in 10.0 mi West 16.1 mph 21.9 mph N/A   Clear
9:15 AM 42.3 °F 34.1 °F 24.1 °F 49% 29.79 in 10.0 mi West 17.3 mph - N/A   Clear
9:35 AM 45.1 °F 37.3 °F 24.3 °F 44% 29.80 in 10.0 mi West 19.6 mph 25.3 mph N/A   Clear
9:55 AM 47.5 °F - 23.9 °F 40% 29.80 in 10.0 mi West 19.6 mph 24.2 mph N/A   Clear
10:15 AM 49.1 °F - 23.7 °F 37% 29.80 in 10.0 mi West 18.4 mph 23.0 mph N/A   Clear
10:35 AM 50.5 °F - 23.0 °F 34% 29.81 in 10.0 mi West 19.6 mph 25.3 mph N/A   Clear
10:55 AM 51.8 °F - 23.0 °F 33% 29.82 in 10.0 mi West 18.4 mph 24.2 mph N/A   Clear
11:15 AM 54.0 °F - 22.8 °F 30% 29.82 in 10.0 mi WNW 20.7 mph - N/A   Clear
11:35 AM 54.5 °F - 22.5 °F 29% 29.82 in 10.0 mi West 12.7 mph 21.9 mph N/A   Clear
11:55 AM 58.3 °F - 19.8 °F 22% 29.81 in 10.0 mi WNW 21.9 mph 28.8 mph N/A   Clear
12:15 PM 59.2 °F - 19.9 °F 22% 29.80 in 10.0 mi WNW 18.4 mph 25.3 mph N/A   Clear
12:35 PM 59.4 °F - 20.1 °F 22% 29.80 in 10.0 mi WNW 16.1 mph 29.9 mph N/A   Clear
12:55 PM 59.9 °F - 19.2 °F 21% 29.78 in 10.0 mi WNW 25.3 mph 36.8 mph N/A   Clear
1:15 PM 60.3 °F - 18.5 °F 20% 29.78 in 10.0 mi WNW 28.8 mph 35.7 mph N/A   Clear
1:35 PM 60.8 °F - 18.9 °F 20% 29.78 in 10.0 mi WNW 25.3 mph 36.8 mph N/A   Clear
1:55 PM 61.2 °F - 18.0 °F 19% 29.77 in 10.0 mi WNW 28.8 mph 34.5 mph N/A   Clear
2:15 PM 60.8 °F - 14.7 °F 17% 29.78 in 10.0 mi NW 26.5 mph 39.1 mph N/A   Clear
2:35 PM 61.0 °F - 12.6 °F 15% 29.78 in 10.0 mi NW 24.2 mph 39.1 mph N/A   Clear
2:55 PM 60.8 °F - 13.1 °F 15% 29.78 in 10.0 mi NW 26.5 mph 39.1 mph N/A   Clear
3:15 PM 59.9 °F - 13.5 °F 16% 29.79 in 10.0 mi NW 26.5 mph 36.8 mph N/A   Clear
3:35 PM 58.8 °F - 16.5 °F 19% 29.80 in 10.0 mi NW 20.7 mph 26.5 mph N/A   Clear
3:55 PM 57.2 °F - 16.5 °F 20% 29.81 in 10.0 mi NNW 18.4 mph 26.5 mph N/A   Clear
4:15 PM 55.6 °F - 18.3 °F 23% 29.81 in 10.0 mi NNW 12.7 mph - N/A   Clear
4:35 PM 54.0 °F - 17.6 °F 24% 29.82 in 10.0 mi NW 15.0 mph - N/A   Clear
4:55 PM 53.6 °F - 17.2 °F 24% 29.83 in 10.0 mi NW 11.5 mph 19.6 mph N/A   Clear
5:15 PM 50.7 °F - 18.0 °F 27% 29.83 in 10.0 mi WNW 5.8 mph - N/A   Clear
5:35 PM 47.8 °F - 18.9 °F 32% 29.83 in 10.0 mi WNW 8.1 mph - N/A   Clear
5:55 PM 45.7 °F 41.0 °F 18.9 °F 34% 29.84 in 10.0 mi WNW 9.2 mph - N/A   Clear
6:15 PM 45.5 °F 41.3 °F 18.3 °F 34% 29.83 in 10.0 mi WNW 8.1 mph - N/A   Clear
7:15 PM 41.5 °F 37.8 °F 19.4 °F 41% 29.84 in 10.0 mi WNW 5.8 mph - N/A   Clear
7:35 PM 38.3 °F 34.8 °F 20.7 °F 49% 29.85 in 10.0 mi WNW 4.6 mph - N/A   Clear
7:55 PM 37.9 °F 33.5 °F 21.2 °F 51% 29.85 in 10.0 mi West 5.8 mph - N/A   Clear
8:15 PM 39.0 °F 33.4 °F 21.0 °F 49% 29.84 in 10.0 mi WNW 8.1 mph - N/A   Clear
8:35 PM 37.0 °F 31.6 °F 21.2 °F 53% 29.85 in 10.0 mi West 6.9 mph - N/A   Clear
8:55 PM 34.5 °F 29.4 °F 21.9 °F 60% 29.85 in 10.0 mi West 5.8 mph - N/A   Clear
9:15 PM 33.4 °F 29.1 °F 22.1 °F 63% 29.85 in 10.0 mi WSW 4.6 mph - N/A   Clear
9:35 PM 34.5 °F 29.4 °F 22.1 °F 61% 29.84 in 10.0 mi West 5.8 mph - N/A   Clear
9:55 PM 34.7 °F 29.6 °F 21.9 °F 60% 29.85 in 10.0 mi West 5.8 mph - N/A   Clear
10:15 PM 34.3 °F 28.4 °F 22.1 °F 61% 29.85 in 10.0 mi WNW 6.9 mph - N/A   Clear
10:35 PM 33.6 °F 28.4 °F 22.8 °F 65% 29.85 in 10.0 mi West 5.8 mph - N/A   Clear
10:55 PM 32.9 °F - 23.0 °F 67% 29.86 in 10.0 mi Calm Calm - N/A   Clear
11:15 PM 34.7 °F 30.6 °F 23.5 °F 64% 29.88 in 10.0 mi West 4.6 mph - N/A   Clear
11:35 PM 34.3 °F 29.2 °F 23.9 °F 66% 29.88 in 10.0 mi West 5.8 mph - N/A   Clear
11:55 PM 34.7 °F 28.8 °F 23.9 °F 65% 29.87 in 10.0 mi West 6.9 mph - N/A   Clear